Location: Joplin, MO
(37.0842°N, 94.5133°W)
Time: 11:56:10
(UTC+02:00)

Vanguard 1 Rocket - All Passes

Search period start: 29 March 2023 00:00
Search period end: 08 April 2023 00:00
Orbit: 652 x 4223 km, 34.3° (Epoch: 28 March)

Date Brightness Start Highest point End Pass type
(mag) Time Alt. Az. Time Alt. Az. Time Alt. Az.
29 Mar - 03:16:54 10° SSW 03:38:50 37° SE 03:57:29 10° E visible
29 Mar - 05:44:20 10° SW 06:09:55 66° SSE 06:26:12 10° E visible
29 Mar - 08:18:00 10° W 08:40:30 81° S 08:52:00 10° E visible
29 Mar - 10:52:49 10° W 11:08:14 58° SSW 11:16:01 10° SE visible
29 Mar - 13:27:18 10° W 13:32:07 15° SW 13:35:49 10° SSW visible
30 Mar - 02:06:41 10° S 02:24:45 26° SE 02:42:03 10° E daylight
30 Mar - 04:30:12 10° SW 04:55:14 56° SSE 05:13:50 10° E visible
30 Mar - 07:01:39 10° WSW 07:26:39 79° S 07:40:42 10° E visible
30 Mar - 09:36:42 10° W 09:56:04 73° SSW 10:05:39 10° ESE visible
30 Mar - 12:10:57 10° W 12:21:39 31° SW 12:27:58 10° SSE visible
31 Mar - 01:00:22 10° SSE 01:11:11 15° SE 01:22:15 10° ESE daylight
31 Mar - 03:17:31 10° SSW 03:40:35 44° SE 04:00:31 10° E visible
31 Mar - 05:46:02 10° WSW 06:12:08 72° SSE 06:28:55 10° E visible
31 Mar - 08:20:10 10° W 08:43:01 81° S 08:54:47 10° E visible
31 Mar - 10:55:06 10° W 11:10:32 51° SSW 11:18:31 10° SE visible
31 Mar - 13:32:47 10° WSW 13:34:00 10° SW 13:35:09 10° SW visible
01 Apr - 02:06:32 10° S 02:26:19 32° SE 02:45:45 10° E daylight
01 Apr - 04:31:36 10° SW 04:57:12 63° SSE 05:16:33 10° E visible
01 Apr - 07:03:43 10° WSW 07:29:03 81° S 07:43:27 10° E visible
01 Apr - 09:38:54 10° W 09:58:29 68° SSW 10:08:18 10° ESE visible
01 Apr - 12:13:46 10° W 12:23:38 25° SW 12:29:50 10° S visible
02 Apr - 00:58:02 10° SSE 01:12:41 20° SE 01:28:13 10° E daylight
02 Apr - 03:18:34 10° SW 03:42:17 51° SE 04:03:20 10° E visible
02 Apr - 05:47:56 10° WSW 06:14:21 77° SSE 06:31:37 10° E visible
02 Apr - 08:22:21 10° W 08:45:28 78° S 08:57:31 10° ESE visible
02 Apr - 10:57:27 10° W 11:12:40 43° SW 11:20:51 10° SSE visible
03 Apr - 02:07:03 10° SSW 02:27:49 39° SE 02:48:56 10° E daylight
03 Apr - 04:33:17 10° SW 04:59:12 69° SSE 05:19:11 10° E visible
03 Apr - 07:05:53 10° W 07:31:28 82° S 07:46:10 10° E visible
03 Apr - 09:41:05 10° W 10:00:47 62° SSW 10:10:52 10° SE visible
03 Apr - 12:16:56 10° W 12:25:28 20° SW 12:31:17 10° S visible
04 Apr - 00:57:24 10° S 01:14:05 26° SE 01:32:31 10° E daylight
04 Apr - 03:19:56 10° SW 03:44:01 58° SSE 04:06:00 10° ENE visible
04 Apr - 05:50:00 10° WSW 06:16:37 80° S 06:34:17 10° E visible
04 Apr - 08:24:32 10° W 08:47:51 75° SSW 09:00:11 10° ESE visible
04 Apr - 10:59:53 10° W 11:14:38 37° SW 11:22:58 10° SSE visible
04 Apr - 23:51:40 10° SSE 00:01:07 14° ESE 00:11:32 10° E daylight
05 Apr - 02:08:00 10° SSW 02:29:19 45° SE 02:51:47 10° ENE daylight
05 Apr - 04:35:10 10° WSW 05:01:14 74° SSE 05:21:48 10° E visible
05 Apr - 07:08:04 10° W 07:33:50 81° S 07:48:53 10° ESE visible
05 Apr - 09:43:17 10° WNW 10:02:56 55° SSW 10:13:18 10° SE visible
05 Apr - 12:20:50 10° W 12:27:10 15° WSW 12:32:00 10° SSW visible
06 Apr - 00:57:40 10° S 01:15:25 32° SE 01:36:01 10° E daylight
06 Apr - 03:21:35 10° SW 03:45:49 64° SSE 04:08:34 10° E visible
06 Apr - 05:52:10 10° W 06:18:54 82° S 06:36:58 10° E visible
06 Apr - 08:26:42 10° W 08:50:08 70° SSW 09:02:47 10° ESE visible
06 Apr - 11:02:30 10° W 11:16:26 30° SW 11:24:49 10° S visible
06 Apr - 23:49:44 10° SSE 00:02:24 19° SE 00:17:24 10° E daylight
07 Apr - 02:09:20 10° SW 02:30:51 52° SE 02:54:26 10° ENE daylight
07 Apr - 04:37:14 10° WSW 05:03:21 78° SSE 05:24:23 10° E visible
07 Apr - 07:10:18 10° W 07:36:11 79° SSW 07:51:32 10° ESE visible
07 Apr - 09:45:31 10° WNW 10:04:55 48° SW 10:15:32 10° SSE visible
07 Apr - 12:27:41 10° WSW 12:28:46 10° WSW 12:29:47 10° SW visible
